ZL1TRE Weather Reports


Display with metric or nautical units.
time (UTC)temp
F
wind
direction
speed
MPH
gust
MPH
rain 1hr
in
rain 24hr
in
rain mn
in
humidity
%
barometer
mb
20260509023022 69 251 8.0 12.0 0.00 1.14 0.10 73 1003.6
20260509020027 69 295 4.0 16.0 0.00 1.14 0.10 73 1003.6
20260509013028 69 312 6.0 16.0 0.00 1.14 0.10 75 1003.8
20260509010023 66 275 6.0 14.0 0.00 1.14 0.10 81 1004.3
20260509003019 68 260 5.0 17.0 0.00 1.14 0.10 78 1004.7
20260509000034 66 315 5.0 10.0 0.00 1.14 0.10 85 1005.4
20260508233023 64 265 3.0 6.0 0.39 1.14 0.10 92 1005.9
20260508230040 63 277 1.0 7.0 0.39 1.14 0.10 90 1006.2
20260508223022 68 285 9.0 15.0 0.00 0.75 0.02 78 1006.3
20260508220017 66 269 5.0 14.0 0.00 0.75 0.02 86 1006.3
20260508213027 65 250 5.0 12.0 0.00 0.75 0.02 92 1006.3
20260508210036 62 268 3.0 10.0 0.00 0.75 0.02 97 1006.2
20260508203021 61 284 2.0 6.0 0.00 0.75 0.02 98 1006.1
20260508200037 59 275 2.0 6.0 0.00 0.75 0.02 97 1006.0
20260508193019 59 281 2.0 4.0 0.00 0.75 0.02 97 1006.0
20260508190036 59 264 3.0 8.0 0.00 0.75 0.02 97 1005.6
20260508183030 59 305 1.0 4.0 0.00 0.75 0.02 97 1005.6
20260508180030 59 312 2.0 4.0 0.00 0.75 0.02 97 1005.6
20260508173052 59 299 1.0 5.0 0.00 0.75 0.02 97 1005.6
20260508170021 59 318 0.0 2.0 0.00 0.75 0.02 96 1005.6
20260508163040 59 314 0.0 2.0 0.00 0.75 0.02 96 1005.8
20260508160032 59 297 1.0 4.0 0.00 0.75 0.02 96 1005.9
20260508153023 60 305 2.0 5.0 0.00 0.75 0.02 96 1006.1
20260508150020 60 235 1.0 4.0 0.00 0.75 0.02 96 1006.0
20260508143041 60 308 1.0 4.0 0.00 0.75 0.02 96 1006.3
20260508140019 60 10 3.0 4.0 0.04 0.75 0.02 96 1006.5
20260508133023 59 277 2.0 7.0 0.12 0.75 0.02 96 1007.0
20260508130041 60 358 2.0 6.0 0.08 0.71 0.02 95 1006.8
20260508123017 60 232 9.0 17.0 0.43 0.63 0.00 95 1006.9
20260508120030 61 242 6.0 15.0 0.43 0.63 0.13 94 1007.3
20260508113023 65 331 15.0 27.0 0.00 0.20 0.04 94 1006.5
20260508110019 66 5 13.0 28.0 0.00 0.20 0.04 94 1006.8
20260508103037 66 346 18.0 25.0 0.04 0.20 0.04 94 1007.3
20260508100028 66 327 16.0 22.0 0.16 0.20 0.04 94 1007.6
20260508093053 65 330 12.0 22.0 0.12 0.16 0.03 94 1008.2
20260508090048 66 5 8.0 19.0 0.00 0.04 0.01 94 1008.2